[[{"header":{"parameterUnit":"m.s-1","parameterCategory":1,"la1":30.2991,"la2":30.254,"lo1":-89.0895,"lo2":-89.0444,"dy":0.0017,"dx":0.0017,"nx":28,"ny":28,"refTime":"2025-06-22T21:00:00:Z","depth":0,"parameterNumber":2,"parameterNumberName":"U-component_of_WINDS"},"data":[0,0,0,0,0,0,0,0,0,0,0,0,0,0,0,0,0,0,0,0,0,0,0,0,0,0,0,0,0,0,0,0,0,0,0,0,0,0,0,0,0,0,0,0,0,0,0,0,0,0,0,0,0,0,0,0,0,0,-2.5993,-2.5993,0,-2.5999,-2.5999,-2.5999,-2.5909,-2.5906,-2.5904,-2.5901,-2.591,-2.5912,-2.5914,0,0,0,0,0,0,0,0,0,0,0,0,0,-2.5906,-2.5908,-2.5993,-2.5993,-2.5993,-2.5999,-2.5999,-2.5999,-2.5909,-2.5906,-2.5903,-2.59,-2.5909,-2.5912,-2.5915,0,0,0,0,0,0,0,0,0,0,0,0,0,-2.5931,-2.5909,-2.5993,-2.5949,-2.5945,-2.5999,-2.5999,-2.5999,-2.591,-2.5906,-2.5902,-2.5899,-2.5908,-2.5911,-2.5915,-2.6012,0,0,-2.5927,-2.5928,0,0,0,0,0,0,0,0,-2.593,-2.5935,-2.5955,-2.5952,-2.5948,-2.5949,-2.5971,-2.6003,-2.5911,-2.5923,-2.5901,-2.5897,-2.5926,-2.5928,-2.5937,-2.6012,-2.6013,-2.5927,-2.5929,-2.5931,-2.5932,0,0,0,0,0,0,0,-2.5928,-2.5934,-2.5995,-2.5956,-2.5951,-2.593,-2.5929,-2.5977,-2.5945,-2.5922,-2.5915,-2.5917,-2.5923,-2.5934,-2.5937,-2.6013,-2.5927,-2.593,-2.5932,-2.5934,-2.6168,-2.6171,0,0,0,0,0,0,-2.5932,-2.5933,-2.5995,-2.5995,-2.5929,-2.5934,-2.5933,-2.5952,-2.5944,-2.5939,-2.592,-2.5913,-2.5929,-2.5932,-2.5937,-2.6049,-2.5931,-2.5934,-2.5936,-2.6164,-2.6169,-2.6173,0,0,0,0,0,0,-2.5931,-2.5939,-2.5995,-2.5962,-2.5968,-2.5939,-2.5961,-2.5954,-2.5965,-2.5943,-2.5937,-2.5937,-2.5926,-2.5931,-2.5994,-2.6048,-2.5936,-2.5939,-2.6159,-2.6165,-2.6171,-2.6274,0,0,0,0,0,0,-2.5929,-2.5939,-2.5974,-2.5964,-2.597,-2.6051,-2.5965,-2.5957,-2.5971,-2.5962,-2.5957,-2.5953,-2.5924,-2.5989,-2.5997,-2.6051,-2.5942,-2.6154,-2.6162,-2.6169,-2.6266,-2.6283,-2.6298,0,0,0,0,0,-2.5926,-2.6004,-2.5977,-2.5985,-2.6014,-2.6054,-2.6058,-2.6022,-2.5976,-2.6012,-2.5998,-2.5953,-2.6041,-2.5996,-2.6005,-2.606,-2.615,-2.616,-2.6168,-2.6259,-2.628,-2.6297,0,0,0,0,0,0,-2.6022,-2.6001,-2.5971,-2.6048,-2.6054,-2.6039,-2.6083,-2.6046,-2.6065,-2.6056,-2.6012,-2.6011,-2.6081,-2.6077,-2.6027,-2.6154,-2.6088,-2.6099,-2.6153,-2.6173,-2.6189,-2.6187,-2.5945,0,0,0,0,0,-2.6052,-2.6086,-2.6067,-2.6136,-2.6141,-2.6112,-2.6128,-2.6101,-2.6105,-2.6107,-2.6097,-2.6104,-2.6133,-2.6153,-2.6179,-2.6266,-2.6263,-2.6309,-2.6325,-2.6338,-2.6347,-2.6393,-2.6413,-2.6202,-2.6202,-2.6202,0,0,-2.6114,-2.6107,-2.6132,-2.6155,-2.6156,-2.6193,-2.6114,-2.6156,-2.6183,-2.6113,-2.6171,-2.6165,-2.617,-2.6245,-2.6277,-2.6244,-2.6405,-2.6349,-2.636,-2.6362,-2.6404,-2.6424,-2.6442,-2.6208,-2.6207,-2.6206,0,0,-2.6246,-2.6245,-2.6302,-2.6305,-2.6308,-2.6288,-2.6303,-2.6294,-2.6287,-2.6344,-2.6293,-2.6325,-2.6376,-2.6381,-2.639,-2.6526,-2.6485,-2.6536,-2.6619,-2.6664,-2.668,-2.6695,-2.6742,-2.676,-2.6546,-2.6547,-2.6547,0,-2.6323,-2.6376,-2.6337,-2.6382,-2.6394,-2.6333,-2.6391,-2.6396,-2.6408,-2.6418,-2.638,-2.6443,-2.6442,-2.6517,-2.655,-2.656,-2.6575,-2.6536,-2.6681,-2.6695,-2.6708,-2.6753,-2.6771,-2.6553,-2.6552,-2.6551,-2.6551,0,-2.647,-2.6508,-2.6554,-2.6566,-2.6583,-2.6635,-2.6605,-2.6628,-2.6599,-2.6584,-2.6644,-2.6641,-2.6664,-2.6681,-2.6654,-2.6753,-2.6731,-2.6688,-2.662,-2.6735,-2.6776,-2.6793,-2.6561,-2.6559,-2.6557,-2.6556,0,0,-2.6661,-2.6651,-2.6669,-2.6673,-2.6673,-2.6701,-2.6751,-2.6773,-2.6794,-2.6804,-2.6845,-2.689,-2.685,-2.6861,-2.6834,-2.6874,-2.6981,-2.6826,-2.6825,-2.6854,-2.7089,-2.712,-2.7141,-2.6955,-2.6958,-2.696,-2.7088,0,-2.6788,-2.6871,-2.6838,-2.6924,-2.6958,-2.6901,-2.6945,-2.6949,-2.6937,-2.6965,-2.6952,-2.6984,-2.693,-2.6936,-2.6973,-2.696,-2.7027,-2.6951,-2.6991,-2.6993,-2.699,-2.7162,-2.7195,-2.7316,-2.7104,-2.7107,-2.7109,0,-2.6947,-2.6964,-2.7053,-2.7046,-2.7059,-2.7099,-2.7117,-2.7144,-2.7149,-2.7137,-2.715,-2.7115,-2.7164,-2.7098,-2.7165,-2.7114,-2.7129,-2.7126,-2.7129,-2.713,-2.7057,-2.7166,-2.7354,-2.7371,-2.7134,-2.7132,-2.713,0,-2.7076,-2.7121,-2.7179,-2.7185,-2.718,-2.7208,-2.7208,-2.7209,-2.7225,-2.7241,-2.7251,-2.7274,-2.7286,-2.7305,-2.7277,-2.7232,-2.7348,-2.728,-2.7339,-2.734,-2.7364,-2.7363,-2.7555,-2.7378,-2.7378,-2.7377,-2.7377,0,-2.722,-2.7276,-2.7237,-2.7273,-2.7335,-2.7298,-2.736,-2.7353,-2.7355,-2.7389,-2.7343,-2.7376,-2.7338,-2.7368,-2.7347,-2.7405,-2.7412,-2.7404,-2.7397,-2.7407,-2.7407,-2.7414,-2.7404,-2.7382,-2.7381,-2.738,-2.7379,0,-2.7373,-2.7349,-2.7409,-2.7399,-2.7398,-2.7444,-2.7435,-2.7469,-2.7454,-2.7498,-2.7506,-2.7484,-2.7516,-2.7491,-2.7524,-2.751,-2.7586,-2.7569,-2.7584,-2.7579,-2.7639,-2.7633,-2.784,-2.7865,-2.7674,-2.7676,-2.7678,0,-2.7465,-2.7507,-2.7502,-2.7521,-2.7523,-2.7555,-2.7571,-2.7537,-2.7556,-2.7565,-2.7597,-2.7626,-2.7647,-2.7703,-2.7689,-2.7715,-2.7696,-2.7767,-2.7699,-2.7708,-2.7695,-2.7692,-2.7696,-2.778,-2.7783,-2.7784,-2.7786,0,-2.7632,-2.7618,-2.7642,-2.7663,-2.7683,-2.7698,-2.771,-2.7729,-2.7694,-2.7718,-2.775,-2.7767,-2.78,-2.783,-2.785,-2.785,-2.7812,-2.7808,-2.7823,-2.7832,-2.7838,-2.7834,-2.762,-2.7803,-2.7801,-2.78,-2.7799,-2.7798,-2.7756,-2.779,-2.7792,-2.7821,-2.7826,-2.7838,-2.7868,-2.7858,-2.7884,-2.7908,-2.7887,-2.7927,-2.7931,-2.7955,-2.796,-2.799,-2.7961,-2.7983,-2.7988,-2.7993,-2.8001,-2.7835,-2.7994,-2.7994,-2.7993,-2.7993,-2.7992,0,-2.7918,-2.7917,-2.7944,-2.7961,-2.7984,-2.7947,-2.7958,-2.798,-2.8015,-2.8022,-2.8044,-2.8082,-2.8111,-2.8101,-2.8126,-2.8153,-2.8136,-2.816,-2.8157,-2.8157,-2.8026,-2.801,-2.8173,-2.8173,-2.8173,-2.8173,-2.8173,-2.8173,-2.8005,-2.8061,-2.8048,-2.8107,-2.8105,-2.8143,-2.8152,-2.8163,-2.8168,-2.8213,-2.8236,-2.8229,-2.823,-2.8255,-2.828,-2.8276,-2.8286,-2.8317,-2.8307,-2.8184,-2.8166,-2.8149,-2.8134,-2.832,-2.832,-2.8434,-2.8435,-2.8436]},{"header":{"parameterUnit":"m.s-1","parameterCategory":1,"la1":30.2991,"la2":30.254,"lo1":-89.0895,"lo2":-89.0444,"dy":0.0017,"dx":0.0017,"nx":28,"ny":28,"refTime":"2025-06-22T21:00:00:Z","depth":0,"parameterNumber":3,"parameterNumberName":"V-component_of_WINDS"},"data":[0,0,0,0,0,0,0,0,0,0,0,0,0,0,0,0,0,0,0,0,0,0,0,0,0,0,0,0,0,0,0,0,0,0,0,0,0,0,0,0,0,0,0,0,0,0,0,0,0,0,0,0,0,0,0,0,0,0,-0.6016,-0.6016,0,-0.5998,-0.5997,-0.5997,-0.5958,-0.5957,-0.5957,-0.5956,-0.5936,-0.5936,-0.5937,0,0,0,0,0,0,0,0,0,0,0,0,0,-0.6015,-0.6016,-0.6016,-0.6016,-0.6016,-0.5998,-0.5997,-0.5997,-0.5958,-0.5957,-0.5956,-0.5955,-0.5936,-0.5936,-0.5937,0,0,0,0,0,0,0,0,0,0,0,0,0,-0.6008,-0.6016,-0.6016,-0.5994,-0.5992,-0.5998,-0.5997,-0.5997,-0.5958,-0.5957,-0.5956,-0.5955,-0.5936,-0.5936,-0.5937,-0.5962,0,0,-0.5938,-0.5938,0,0,0,0,0,0,0,0,-0.6009,-0.6008,-0.5998,-0.5996,-0.5993,-0.5979,-0.599,-0.5985,-0.5959,-0.5971,-0.5956,-0.5954,-0.5951,-0.595,-0.5949,-0.5961,-0.5961,-0.5938,-0.5938,-0.5938,-0.5938,0,0,0,0,0,0,0,-0.6009,-0.6009,-0.6009,-0.5998,-0.5995,-0.5984,-0.5982,-0.5989,-0.5968,-0.597,-0.5967,-0.5966,-0.595,-0.5949,-0.5949,-0.596,-0.5938,-0.5938,-0.5938,-0.5938,-0.5988,-0.5989,0,0,0,0,0,0,-0.6013,-0.601,-0.601,-0.6008,-0.5998,-0.5985,-0.5983,-0.5985,-0.5968,-0.5964,-0.5967,-0.5964,-0.5949,-0.5948,-0.5948,-0.5975,-0.5938,-0.5938,-0.5939,-0.5987,-0.5989,-0.599,0,0,0,0,0,0,-0.6013,-0.6014,-0.601,-0.6008,-0.6007,-0.5987,-0.5989,-0.5985,-0.5984,-0.5965,-0.5961,-0.597,-0.5948,-0.5947,-0.5958,-0.5973,-0.5938,-0.5939,-0.5986,-0.5988,-0.5989,-0.603,0,0,0,0,0,0,-0.6014,-0.6014,-0.6024,-0.6009,-0.6007,-0.6022,-0.599,-0.5986,-0.5985,-0.5981,-0.5967,-0.5964,-0.5947,-0.5958,-0.5959,-0.5973,-0.5939,-0.5984,-0.5987,-0.5989,-0.6027,-0.6032,-0.6037,0,0,0,0,0,-0.6014,-0.6037,-0.6025,-0.6025,-0.602,-0.6023,-0.6022,-0.6003,-0.5987,-0.5996,-0.5983,-0.5964,-0.5972,-0.5959,-0.596,-0.5975,-0.5983,-0.5986,-0.5989,-0.6024,-0.6031,-0.6037,0,0,0,0,0,0,-0.6056,-0.6035,-0.6021,-0.604,-0.6034,-0.6016,-0.6028,-0.6011,-0.6009,-0.6006,-0.5981,-0.5978,-0.5992,-0.5984,-0.5971,-0.5997,-0.5974,-0.5977,-0.6001,-0.6008,-0.6013,-0.6014,-0.5939,0,0,0,0,0,-0.6067,-0.6072,-0.6053,-0.6072,-0.6069,-0.6049,-0.605,-0.6035,-0.6027,-0.6024,-0.6012,-0.6005,-0.6005,-0.6006,-0.6006,-0.6025,-0.602,-0.6035,-0.6041,-0.6045,-0.6048,-0.6055,-0.606,-0.5998,-0.5998,-0.5998,0,0,-0.6091,-0.608,-0.6085,-0.608,-0.6073,-0.6077,-0.6047,-0.6054,-0.6056,-0.6025,-0.6034,-0.6025,-0.6015,-0.603,-0.6035,-0.6024,-0.6063,-0.6048,-0.6052,-0.6052,-0.6058,-0.6064,-0.6069,-0.6,-0.6,-0.5999,0,0,-0.6136,-0.613,-0.6143,-0.6136,-0.6125,-0.6112,-0.6115,-0.6099,-0.6092,-0.61,-0.6076,-0.6078,-0.608,-0.6073,-0.607,-0.6109,-0.609,-0.6109,-0.6137,-0.6144,-0.6149,-0.6153,-0.6165,-0.617,-0.6112,-0.6112,-0.6112,0,-0.6168,-0.6174,-0.6152,-0.6159,-0.6157,-0.6128,-0.614,-0.6135,-0.6125,-0.6123,-0.611,-0.6109,-0.6101,-0.6112,-0.6121,-0.612,-0.6121,-0.6111,-0.615,-0.6154,-0.6157,-0.6169,-0.6174,-0.6114,-0.6114,-0.6114,-0.6114,0,-0.6211,-0.6216,-0.6228,-0.6218,-0.6216,-0.6227,-0.6205,-0.6206,-0.6191,-0.6178,-0.6185,-0.6173,-0.6169,-0.617,-0.6156,-0.6178,-0.6171,-0.6154,-0.6131,-0.6166,-0.6176,-0.618,-0.6117,-0.6117,-0.6116,-0.6115,0,0,-0.6285,-0.626,-0.6265,-0.6259,-0.6244,-0.6246,-0.6254,-0.6248,-0.6249,-0.6242,-0.6247,-0.6247,-0.623,-0.6227,-0.6211,-0.6217,-0.6246,-0.6199,-0.6198,-0.6207,-0.6268,-0.628,-0.6286,-0.6234,-0.6235,-0.6235,-0.6268,0,-0.6326,-0.6338,-0.6317,-0.6333,-0.6336,-0.6307,-0.6313,-0.6303,-0.6291,-0.629,-0.6276,-0.6276,-0.6255,-0.6252,-0.6257,-0.6242,-0.6258,-0.6239,-0.6236,-0.6237,-0.6239,-0.6291,-0.6305,-0.6337,-0.6272,-0.6273,-0.6273,0,-0.6376,-0.6371,-0.6387,-0.6368,-0.6368,-0.6374,-0.6366,-0.6367,-0.6354,-0.6344,-0.6338,-0.6319,-0.6323,-0.6301,-0.6305,-0.6293,-0.629,-0.6282,-0.6283,-0.6281,-0.6257,-0.629,-0.6347,-0.6351,-0.628,-0.6279,-0.6279,0,-0.6426,-0.6422,-0.6431,-0.6427,-0.6406,-0.641,-0.6401,-0.6388,-0.6385,-0.6378,-0.6375,-0.6369,-0.6365,-0.636,-0.6338,-0.6324,-0.6344,-0.6321,-0.6335,-0.6335,-0.634,-0.634,-0.6396,-0.634,-0.634,-0.634,-0.634,0,-0.6474,-0.6484,-0.6453,-0.6458,-0.6468,-0.6443,-0.6454,-0.6442,-0.643,-0.6431,-0.6405,-0.6407,-0.6379,-0.6377,-0.636,-0.6365,-0.6364,-0.6355,-0.635,-0.6357,-0.6358,-0.6354,-0.6351,-0.6341,-0.6341,-0.6341,-0.6341,0,-0.6531,-0.6511,-0.6518,-0.6496,-0.6491,-0.6499,-0.648,-0.6483,-0.6468,-0.6469,-0.6468,-0.6444,-0.644,-0.6418,-0.641,-0.6398,-0.6408,-0.64,-0.6412,-0.6409,-0.6424,-0.6422,-0.6479,-0.6484,-0.6426,-0.6427,-0.6427,0,-0.6563,-0.657,-0.6548,-0.6547,-0.6539,-0.6538,-0.6535,-0.651,-0.6507,-0.6492,-0.6496,-0.649,-0.6484,-0.6478,-0.6459,-0.6452,-0.6442,-0.6462,-0.644,-0.6446,-0.644,-0.644,-0.6439,-0.6467,-0.6467,-0.6468,-0.6469,0,-0.662,-0.6609,-0.6605,-0.6597,-0.6593,-0.6586,-0.6577,-0.6577,-0.6549,-0.6547,-0.6542,-0.6537,-0.6527,-0.652,-0.6509,-0.6498,-0.6478,-0.6475,-0.6478,-0.6484,-0.6491,-0.6486,-0.6424,-0.6474,-0.6474,-0.6473,-0.6473,-0.6473,-0.6665,-0.6669,-0.6653,-0.6649,-0.6639,-0.6631,-0.6632,-0.6616,-0.6612,-0.6601,-0.6586,-0.6583,-0.6567,-0.655,-0.6541,-0.6537,-0.6526,-0.653,-0.6531,-0.6532,-0.6535,-0.6492,-0.6535,-0.6535,-0.6534,-0.6534,-0.6534,0,-0.6719,-0.6708,-0.6704,-0.6691,-0.6687,-0.6668,-0.6656,-0.6654,-0.6651,-0.6639,-0.6632,-0.6626,-0.6618,-0.6598,-0.6588,-0.6589,-0.6579,-0.6587,-0.6586,-0.6584,-0.6546,-0.6544,-0.6595,-0.6595,-0.6595,-0.6595,-0.6595,-0.6595,-0.6747,-0.6752,-0.6739,-0.6738,-0.6726,-0.6722,-0.6717,-0.6708,-0.6697,-0.6691,-0.6684,-0.6671,-0.6655,-0.6643,-0.6635,-0.6629,-0.6626,-0.6636,-0.6627,-0.6592,-0.6587,-0.6581,-0.6579,-0.6636,-0.6636,-0.6665,-0.6665,-0.6665]}]]